Location: San Gennaro Vesuviano
(40.8833°N, 14.5333°E)
Time: 21:51:05
(UTC+00:00)

Cosmos 2333 - Pass Details

Date: 22 April 2021
Orbit: 830 x 866 km, 70.9° (Epoch: 10 May)

Event Time Altitude Azimuth Distance (km) Brightness Sun altitude
Rises 18:08:07 0° 335° (NNW) 3,452 8.2 -4.2°
Reaches altitude 10° 18:10:36 10° 334° (NNW) 2,508 7.4 -4.7°
Maximum altitude 18:16:22 82° 249° (WSW) 871 4.4 -5.7°
Drops below altitude 10° 18:22:03 10° 162° (SSE) 2,470 6.3 -6.7°
Sets 18:24:29 0° 161° (SSE) 3,396 6.9 -7.1°
